EW6899 Weather Reports


Display with metric or nautical units.
time (UTC)temp
F
wind
direction
speed
MPH
gust
MPH
rain 1hr
in
rain 24hr
in
rain mn
in
humidity
%
barometer
mb
20260906111050 57 36 1.0 2.0 0.00 0.00 0.00 93 1016.5
20260906110546 57 36 1.0 3.0 0.00 0.00 0.00 93 1016.5
20260906110055 57 36 1.0 3.0 0.00 0.00 0.00 93 1016.5
20260906105544 57 36 1.0 2.0 0.00 0.00 0.00 93 1016.5
20260906105043 58 37 1.0 3.0 0.00 0.00 0.00 93 1016.5
20260906104542 58 36 1.0 3.0 0.00 0.00 0.00 93 1016.1
20260906104041 58 29 1.0 2.0 0.00 0.00 0.00 93 1016.1
20260906103541 58 29 1.0 2.0 0.00 0.00 0.00 93 1016.1
20260906103040 58 28 1.0 3.0 0.00 0.00 0.00 92 1016.1
20260906102540 59 28 1.0 4.0 0.00 0.00 0.00 92 1016.1
20260906102042 59 39 2.0 5.0 0.00 0.00 0.00 93 1016.1
20260906101539 59 50 2.0 5.0 0.00 0.00 0.00 93 1015.9
20260906101039 59 49 2.0 5.0 0.00 0.00 0.00 93 1015.9
20260906100538 59 66 2.0 7.0 0.00 0.00 0.00 92 1015.9
20260906100039 59 33 2.0 7.0 0.00 0.00 0.00 92 1016.0
20260906095539 59 46 2.0 6.0 0.00 0.00 0.00 92 1016.0
20260906095036 59 57 2.0 6.0 0.00 0.00 0.00 92 1016.0
20260906094535 60 29 1.0 7.0 0.00 0.00 0.00 92 1016.0
20260906094035 60 40 3.0 7.0 0.00 0.00 0.00 92 1016.0
20260906093534 60 33 3.0 5.0 0.00 0.00 0.00 92 1016.0
20260906093046 60 45 2.0 5.0 0.00 0.00 0.00 92 1016.0
20260906092534 60 58 2.0 7.0 0.00 0.00 0.00 91 1016.0
20260906092033 60 48 3.0 7.0 0.00 0.00 0.00 92 1016.0
20260906091533 60 60 2.0 5.0 0.00 0.00 0.00 91 1015.6
20260906091033 61 73 3.0 8.0 0.00 0.00 0.00 92 1015.6
20260906090531 61 43 4.0 8.0 0.00 0.00 0.00 91 1015.6
20260906090047 61 46 2.0 9.0 0.00 0.00 0.00 92 1015.6
20260906085529 61 54 4.0 9.0 0.00 0.00 0.00 92 1015.6
20260906085033 61 60 3.0 9.0 0.00 0.00 0.00 92 1015.6
20260906084534 61 65 4.0 9.0 0.00 0.00 0.00 92 1015.5
20260906084028 61 75 5.0 9.0 0.00 0.00 0.00 92 1015.5
20260906083527 61 98 4.0 9.0 0.00 0.00 0.00 92 1015.5
20260906083035 62 103 4.0 9.0 0.00 0.00 0.00 92 1015.4
20260906082526 62 87 4.0 8.0 0.00 0.00 0.00 92 1015.4
20260906082026 62 59 3.0 7.0 0.00 0.00 0.00 92 1015.4
20260906081525 62 89 3.0 7.0 0.00 0.00 0.00 92 1015.4
20260906081026 62 61 3.0 7.0 0.00 0.00 0.00 92 1015.4
20260906080527 62 85 3.0 7.0 0.00 0.00 0.00 92 1015.4
20260906080024 62 29 3.0 5.0 0.00 0.00 0.00 92 1015.4
20260906075527 62 80 2.0 8.0 0.00 0.00 0.00 92 1015.4
20260906075024 62 78 3.0 8.0 0.00 0.00 0.00 92 1015.4
20260906074533 62 76 4.0 9.0 0.00 0.00 0.00 92 1015.3
20260906074022 62 82 4.0 9.0 0.00 0.00 0.00 92 1015.3
20260906073521 63 78 2.0 8.0 0.00 0.00 0.00 91 1015.3
20260906073024 63 73 4.0 8.0 0.00 0.00 0.00 91 1015.2
20260906072521 63 63 2.0 8.0 0.00 0.00 0.00 91 1015.2
20260906072020 63 41 3.0 7.0 0.00 0.00 0.00 91 1015.2
20260906071520 63 86 2.0 5.0 0.00 0.00 0.00 91 1015.3
20260906071021 63 77 2.0 6.0 0.00 0.00 0.00 91 1015.3
20260906070520 63 39 2.0 8.0 0.00 0.00 0.00 90 1015.3
20260906070020 63 81 4.0 8.0 0.00 0.17 0.00 90 1015.4
20260906065524 63 57 2.0 7.0 0.00 0.17 0.00 90 1015.4
20260906065025 64 60 3.0 7.0 0.00 0.17 0.00 90 1015.4
20260906064517 64 89 2.0 8.0 0.00 0.17 0.00 90 1015.4
20260906064017 64 54 4.0 10.0 0.00 0.17 0.00 90 1015.4
20260906063518 64 75 5.0 10.0 0.00 0.17 0.00 90 1015.4
20260906063015 64 80 4.0 9.0 0.00 0.17 0.00 90 1015.4
20260906062514 64 43 3.0 9.0 0.00 0.17 0.00 90 1015.4
20260906062014 64 86 4.0 9.0 0.00 0.17 0.00 90 1015.4
20260906061513 64 76 6.0 10.0 0.00 0.17 0.00 90 1015.4
20260906061012 64 39 5.0 10.0 0.00 0.17 0.00 90 1015.4
20260906060512 65 56 4.0 9.0 0.00 0.17 0.00 89 1015.4
20260906060012 65 60 4.0 9.0 0.00 0.61 0.00 89 1015.2
20260906055510 65 51 5.0 11.0 0.00 0.61 0.00 89 1015.2
20260906055010 65 69 6.0 11.0 0.00 0.61 0.00 89 1015.2
20260906054509 65 50 5.0 10.0 0.00 0.61 0.00 89 1015.0
20260906054008 65 79 5.0 13.0 0.00 0.61 0.00 89 1015.0
20260906053508 65 38 6.0 13.0 0.00 0.61 0.00 89 1015.0
20260906053005 65 91 6.0 10.0 0.00 0.61 0.00 88 1014.8
20260906052506 65 86 4.0 12.0 0.00 0.61 0.00 89 1014.8
20260906052005 66 53 5.0 12.0 0.00 0.61 0.00 89 1014.8
20260906051504 66 71 3.0 13.0 0.00 0.61 0.00 89 1014.8
20260906051003 66 64 5.0 10.0 0.00 0.61 0.00 89 1014.8
20260906050502 66 86 4.0 10.0 0.00 0.75 0.00 88 1014.8
20260906050002 66 67 5.0 9.0 0.00 0.75 0.00 89 1014.7
20260906045500 66 49 3.0 7.0 0.00 0.75 0.00 89 1014.7
20260906045100 66 51 3.0 9.0 0.00 0.75 0.00 89 1014.7
20260906044619 66 43 3.0 10.0 0.00 0.75 0.00 90 1014.4
20260906044501 66 100 4.0 10.0 0.00 0.75 0.00 90 1014.4
20260906044058 66 69 4.0 10.0 0.00 0.75 0.00 90 1014.4
20260906043558 66 56 5.0 9.0 0.00 0.75 0.00 90 1014.4
20260906043101 66 43 4.0 8.0 0.00 0.75 0.00 90 1014.5
20260906042558 66 53 4.0 7.0 0.00 0.75 0.00 90 1014.5
20260906042056 66 27 3.0 9.0 0.00 0.75 0.00 91 1014.5
20260906041558 66 33 4.0 9.0 0.00 0.75 0.00 91 1014.4
20260906041056 66 60 2.0 8.0 0.00 0.75 0.00 92 1014.4
20260906040558 66 43 2.0 6.0 0.00 0.75 0.00 93 1014.4
20260906040055 66 57 2.0 6.0 0.00 0.75 0.75 93 1014.5
20260906035558 66 48 3.0 6.0 0.00 0.75 0.75 93 1014.5
20260906035054 66 56 2.0 4.0 0.00 0.75 0.75 93 1014.5
20260906034554 67 50 1.0 5.0 0.00 0.75 0.75 94 1014.4
20260906034056 67 25 3.0 5.0 0.00 0.75 0.75 94 1014.4
20260906033554 67 48 1.0 5.0 0.00 0.75 0.75 94 1014.4
20260906033053 67 50 2.0 6.0 0.00 0.75 0.75 94 1014.4
20260906032553 67 22 3.0 6.0 0.00 0.75 0.75 94 1014.4
20260906032053 67 10 3.0 6.0 0.00 0.75 0.75 94 1014.4
20260906031553 67 31 2.0 6.0 0.00 0.75 0.75 94 1014.4
20260906031053 67 56 1.0 5.0 0.00 0.75 0.75 94 1014.4
20260906030552 67 360 2.0 5.0 0.00 0.75 0.75 95 1014.4
20260906030053 67 4 3.0 4.0 0.00 0.75 0.75 95 1014.3
20260906025552 67 350 1.0 3.0 0.00 0.75 0.75 94 1014.3
20260906025052 67 29 0.0 2.0 0.00 0.75 0.75 94 1014.3
20260906024609 67 29 1.0 2.0 0.00 0.75 0.75 94 1014.0
20260906024050 67 29 0.0 2.0 0.00 0.75 0.75 94 1014.0
20260906023550 67 29 0.0 2.0 0.00 0.75 0.75 94 1014.0
20260906023100 67 29 1.0 2.0 0.00 0.75 0.75 93 1013.7
20260906022550 68 29 0.0 2.0 0.00 0.75 0.75 93 1013.7
20260906022050 68 29 0.0 2.0 0.00 0.75 0.75 93 1013.7
20260906021551 68 29 0.0 1.0 0.00 0.75 0.75 93 1013.7
20260906021049 68 29 0.0 1.0 0.00 0.75 0.75 93 1013.7
20260906020550 69 29 0.0 1.0 0.00 0.75 0.75 93 1013.7
20260906020051 69 29 0.0 1.0 0.00 0.75 0.75 93 1013.7
20260906015549 69 29 0.0 2.0 0.00 0.75 0.75 93 1013.7
20260906015049 69 29 1.0 2.0 0.00 0.75 0.75 92 1013.7
20260906014552 69 29 1.0 2.0 0.00 0.75 0.75 92 1013.6
20260906014049 70 29 1.0 2.0 0.00 0.75 0.75 93 1013.6
20260906013548 70 29 0.0 1.0 0.00 0.75 0.75 92 1013.6
20260906013048 70 29 0.0 0.0 0.00 0.75 0.75 92 1013.6
20260906012547 70 29 0.0 1.0 0.00 0.75 0.75 92 1013.6
20260906012047 70 29 0.0 1.0 0.00 0.75 0.75 92 1013.6
20260906011557 70 29 1.0 1.0 0.00 0.75 0.75 92 1013.2
20260906011047 71 29 0.0 1.0 0.00 0.75 0.75 92 1013.2
20260906010547 71 29 0.0 2.0 0.00 0.75 0.75 92 1013.2
20260906010117 71 29 0.0 3.0 0.00 0.75 0.75 92 1013.2
20260906005546 71 29 1.0 3.0 0.00 0.75 0.75 92 1013.2
20260906005046 71 29 2.0 3.0 0.00 0.75 0.75 92 1013.2
20260906004548 71 41 0.0 2.0 0.00 0.75 0.75 92 1013.1
20260906004045 71 41 0.0 2.0 0.00 0.75 0.75 92 1013.1
20260906003545 71 41 1.0 2.0 0.00 0.75 0.75 92 1013.1
20260906003047 71 41 0.0 3.0 0.00 0.75 0.75 91 1012.9
20260906002544 71 40 1.0 3.0 0.00 0.75 0.75 91 1012.9
20260906002047 71 40 2.0 3.0 0.00 0.75 0.75 91 1012.9
20260906001600 71 56 1.0 3.0 0.00 0.75 0.75 91 1013.0
20260906001044 71 59 1.0 3.0 0.00 0.75 0.75 90 1013.0
20260906000544 71 59 0.0 3.0 0.00 0.75 0.75 90 1013.0
20260906000044 71 61 1.0 4.0 0.00 0.75 0.75 90 1012.9
20260905235544 71 39 1.0 4.0 0.00 0.75 0.75 90 1012.9
20260905235044 72 72 2.0 4.0 0.00 0.75 0.75 90 1012.9
20260905234544 72 39 1.0 4.0 0.00 0.75 0.75 90 1013.0
20260905234043 72 49 2.0 4.0 0.00 0.75 0.75 90 1013.0
20260905233543 72 24 2.0 4.0 0.00 0.75 0.75 89 1013.0
20260905233043 72 27 1.0 5.0 0.00 0.75 0.75 89 1013.0
20260905232544 72 38 1.0 5.0 0.00 0.75 0.75 89 1013.0
20260905232042 72 45 2.0 7.0 0.00 0.75 0.75 89 1013.0
20260905231545 72 44 2.0 7.0 0.00 0.75 0.75 89 1012.8
20260905231041 72 81 3.0 7.0 0.00 0.75 0.75 89 1012.8
20260905230541 72 56 2.0 10.0 0.00 0.75 0.75 89 1012.8
20260905230047 72 66 5.0 10.0 0.00 0.75 0.75 89 1012.6
20260905225541 72 50 5.0 9.0 0.00 0.75 0.75 89 1012.6
20260905225041 72 30 5.0 9.0 0.00 0.75 0.75 88 1012.6
20260905224545 72 50 3.0 10.0 0.00 0.75 0.75 88 1012.4
20260905224040 73 53 5.0 11.0 0.00 0.75 0.75 88 1012.4
20260905223541 73 87 4.0 13.0 0.00 0.75 0.75 88 1012.4
20260905223043 73 66 5.0 13.0 0.00 0.75 0.75 88 1012.2
20260905222541 73 52 4.0 15.0 0.00 0.75 0.75 88 1012.2
20260905222040 73 27 6.0 15.0 0.00 0.75 0.75 89 1012.2
20260905221549 73 69 7.0 11.0 0.00 0.75 0.75 89 1012.3
20260905221039 73 80 4.0 10.0 0.00 0.75 0.75 88 1012.3
20260905220539 73 22 4.0 10.0 0.00 0.75 0.75 89 1012.3
20260905220039 73 30 3.0 11.0 0.00 0.75 0.75 89 1012.2
20260905215539 73 49 3.0 11.0 0.00 0.75 0.75 88 1012.2
20260905215038 73 62 5.0 11.0 0.00 0.75 0.75 89 1012.2
20260905214539 73 14 3.0 10.0 0.00 0.75 0.75 88 1012.0
20260905214039 73 81 6.0 11.0 0.00 0.75 0.75 89 1012.0
20260905213539 73 21 5.0 11.0 0.00 0.75 0.75 89 1012.0
20260905213050 73 62 7.0 12.0 0.00 0.75 0.75 89 1012.0
20260905212540 73 35 8.0 12.0 0.00 0.75 0.75 90 1012.0
20260905212038 73 23 5.0 9.0 0.00 0.75 0.75 90 1012.0
20260905211544 73 7 5.0 10.0 0.00 0.75 0.75 91 1012.0
20260905211041 73 346 5.0 11.0 0.00 0.75 0.75 90 1012.0
20260905210537 73 23 5.0 11.0 0.00 0.75 0.75 90 1012.0
20260905210039 74 50 7.0 15.0 0.00 0.75 0.75 90 1011.7
20260905205537 74 23 11.0 15.0 0.00 0.75 0.75 89 1011.7
20260905205039 75 360 10.0 13.0 0.00 0.75 0.75 89 1011.7
20260905204537 75 345 5.0 11.0 0.00 0.75 0.75 89 1011.8
20260905204036 75 8 5.0 10.0 0.00 0.75 0.75 89 1011.8
20260905203537 75 35 4.0 9.0 0.00 0.75 0.75 89 1011.8
20260905203050 75 355 5.0 9.0 0.00 0.75 0.75 89 1011.9
20260905202538 76 12 5.0 9.0 0.00 0.75 0.75 88 1011.9
20260905202036 76 335 5.0 10.0 0.00 0.75 0.75 89 1011.9
20260905201552 76 6 4.0 10.0 0.00 0.75 0.75 88 1011.9
20260905201034 76 337 6.0 9.0 0.00 0.75 0.75 88 1011.9
20260905200535 76 346 4.0 10.0 0.00 0.75 0.75 88 1011.9
20260905200037 76 8 5.0 11.0 0.00 0.75 0.75 87 1011.9
20260905195536 76 11 8.0 11.0 0.00 0.75 0.75 88 1011.9
20260905195034 76 350 4.0 10.0 0.00 0.75 0.75 87 1011.9
20260905194534 76 350 5.0 10.0 0.00 0.75 0.75 88 1012.0
20260905194033 76 6 5.0 10.0 0.00 0.75 0.75 88 1012.0
20260905193536 77 46 5.0 11.0 0.00 0.75 0.75 88 1012.0
20260905193037 76 355 6.0 11.0 0.00 0.75 0.75 87 1011.9
20260905192535 77 24 6.0 11.0 0.00 0.75 0.75 87 1011.9
20260905192032 77 350 5.0 9.0 0.00 0.75 0.75 86 1011.9
20260905191533 78 4 7.0 10.0 0.00 0.75 0.75 87 1012.0
20260905191034 78 326 6.0 10.0 0.00 0.75 0.75 86 1012.0
20260905190533 78 344 7.0 10.0 0.00 0.75 0.75 87 1012.0
20260905190032 78 21 5.0 10.0 0.00 0.75 0.75 84 1012.0
20260905185533 78 337 4.0 8.0 0.00 0.75 0.75 81 1012.0
20260905185031 79 46 4.0 8.0 0.00 0.75 0.75 84 1012.0
20260905184531 78 106 3.0 8.0 0.00 0.75 0.75 83 1012.0
20260905184030 78 23 4.0 8.0 0.00 0.75 0.75 83 1012.0
20260905183529 78 39 3.0 7.0 0.00 0.75 0.75 83 1012.0
20260905183039 78 70 2.0 6.0 0.00 0.75 0.75 84 1012.0
20260905182529 78 37 2.0 6.0 0.00 0.75 0.75 85 1012.0
20260905182031 77 35 2.0 7.0 0.00 0.75 0.75 83 1012.0
20260905181528 77 342 3.0 7.0 0.00 0.75 0.75 84 1012.0
20260905181027 77 33 3.0 7.0 0.00 0.75 0.75 83 1012.0
20260905180527 78 50 4.0 9.0 0.00 0.75 0.75 83 1012.0
20260905180026 78 355 4.0 8.0 0.00 0.75 0.75 84 1012.1
20260905175526 77 123 6.0 8.0 0.00 0.75 0.75 88 1012.1
20260905175024 76 77 3.0 7.0 0.00 0.75 0.75 85 1012.1
20260905174524 76 65 3.0 7.0 0.00 0.75 0.75 86 1012.1
20260905174024 76 8 3.0 7.0 0.00 0.75 0.75 87 1012.1
20260905173524 76 16 4.0 7.0 0.00 0.75 0.75 86 1012.1
20260905173022 76 49 4.0 7.0 0.00 0.75 0.75 88 1012.3
20260905172521 76 58 3.0 8.0 0.00 0.75 0.75 88 1012.3
20260905172021 75 72 3.0 6.0 0.00 0.75 0.75 88 1012.3
20260905171521 75 33 2.0 5.0 0.00 0.75 0.75 87 1012.6
20260905171020 75 85 2.0 5.0 0.00 0.75 0.75 89 1012.6
20260905170520 75 360 2.0 5.0 0.00 0.75 0.75 88 1012.6
20260905170019 75 337 2.0 5.0 0.00 1.06 0.75 89 1012.5
20260905165519 75 23 3.0 6.0 0.00 1.06 0.75 88 1012.5
20260905165019 75 88 1.0 6.0 0.00 1.06 0.75 88 1012.5
20260905164519 75 36 3.0 6.0 0.00 1.06 0.75 88 1012.5
20260905164018 75 103 2.0 6.0 0.00 1.06 0.75 88 1012.5
20260905163518 75 360 3.0 6.0 0.00 1.06 0.75 89 1012.5
20260905163018 74 61 2.0 7.0 0.00 1.06 0.75 89 1012.4
20260905162519 74 33 2.0 9.0 0.00 1.06 0.75 89 1012.4
20260905162016 74 84 4.0 8.0 0.00 1.06 0.75 90 1012.4
20260905161518 74 38 4.0 8.0 0.00 1.06 0.75 90 1012.5
20260905161017 74 21 2.0 7.0 0.00 1.06 0.75 91 1012.5
20260905160516 74 38 3.0 7.0 0.00 1.06 0.75 91 1012.5
20260905160013 73 46 2.0 7.0 0.00 1.06 0.75 91 1012.1
20260905155515 73 38 4.0 7.0 0.00 1.06 0.75 92 1012.1
20260905155012 73 19 2.0 9.0 0.00 1.06 0.75 93 1012.1
20260905154513 73 55 5.0 9.0 0.00 1.06 0.75 94 1012.2
20260905154012 72 59 4.0 8.0 0.00 1.06 0.75 93 1012.2
20260905153512 72 32 2.0 8.0 0.00 1.06 0.75 94 1012.2
20260905153018 72 35 3.0 8.0 0.00 1.06 0.75 95 1012.1
20260905152512 72 46 3.0 7.0 0.00 1.06 0.75 95 1012.1
20260905152012 72 68 3.0 7.0 0.00 1.06 0.75 95 1012.1
20260905151517 71 19 4.0 7.0 0.00 1.06 0.75 95 1012.3
20260905151014 71 46 3.0 7.0 0.00 1.06 0.75 96 1012.3
20260905150514 71 33 4.0 7.0 0.00 1.06 0.75 95 1012.3
20260905150018 71 68 3.0 8.0 0.00 1.07 0.75 96 1012.1
20260905145512 71 355 4.0 7.0 0.00 1.07 0.75 96 1012.1
20260905145011 71 73 2.0 5.0 0.00 1.07 0.75 96 1012.1
20260905144517 71 53 3.0 5.0 0.00 1.07 0.75 96 1012.1
20260905144010 71 51 1.0 4.0 0.00 1.07 0.75 96 1012.1
20260905143511 71 48 2.0 6.0 0.00 1.07 0.75 96 1012.1
20260905143011 71 25 3.0 6.0 0.00 1.07 0.75 96 1012.1
20260905142511 70 160 2.0 6.0 0.00 1.07 0.75 96 1012.1
20260905142010 70 127 2.0 6.0 0.00 1.07 0.75 96 1012.1
20260905141510 70 127 3.0 8.0 0.00 1.07 0.75 96 1011.8
20260905141011 70 127 3.0 9.0 0.00 1.07 0.75 96 1011.8
20260905140510 70 129 4.0 10.0 0.00 1.07 0.75 96 1011.8
20260905140010 70 117 4.0 8.0 0.00 1.07 0.75 96 1011.7
20260905135510 70 79 2.0 9.0 0.00 1.07 0.75 96 1011.7
20260905135009 70 93 3.0 9.0 0.00 1.07 0.75 96 1011.7
20260905134510 69 93 6.0 8.0 0.00 1.07 0.75 96 1011.9
20260905134008 69 57 2.0 9.0 0.00 1.07 0.75 96 1011.9
20260905133509 69 34 4.0 9.0 0.00 1.07 0.75 96 1011.9
20260905133008 69 107 3.0 8.0 0.00 1.07 0.75 96 1011.9
20260905132508 69 107 3.0 7.0 0.00 1.07 0.75 96 1011.9
20260905132008 69 110 3.0 8.0 0.00 1.07 0.75 96 1011.9
20260905131508 69 83 2.0 8.0 0.00 1.07 0.75 96 1011.5
20260905131007 69 80 2.0 8.0 0.00 1.07 0.75 96 1011.5
20260905130507 69 82 4.0 8.0 0.00 1.07 0.75 96 1011.5
20260905130008 69 85 5.0 8.0 0.00 1.07 0.75 96 1011.8
20260905125507 69 75 4.0 8.0 0.00 1.07 0.75 96 1011.8
20260905125007 69 78 4.0 8.0 0.00 1.07 0.75 96 1011.8
20260905124514 68 50 3.0 9.0 0.00 1.07 0.75 96 1011.7
20260905124006 68 77 4.0 9.0 0.00 1.07 0.75 96 1011.7
20260905123506 68 4 2.0 9.0 0.00 1.07 0.75 96 1011.7
20260905123004 68 66 6.0 9.0 0.00 1.07 0.75 96 1011.5
20260905122505 68 54 1.0 3.0 0.00 1.07 0.75 96 1011.5
20260905122004 68 54 1.0 5.0 0.00 1.07 0.75 96 1011.5
20260905121505 68 86 2.0 5.0 0.00 1.07 0.75 96 1011.3
20260905121004 68 112 1.0 4.0 0.00 1.07 0.75 96 1011.3
20260905120504 68 71 2.0 4.0 0.00 1.07 0.75 96 1011.3
20260905120003 68 32 1.0 4.0 0.00 1.07 0.75 96 1011.0
20260905115503 68 71 2.0 8.0 0.00 1.07 0.75 96 1011.0
20260905115003 68 66 1.0 8.0 0.00 1.07 0.75 96 1011.0
20260905114504 67 40 2.0 6.0 0.00 1.07 0.75 96 1010.9
20260905114002 67 27 3.0 5.0 0.00 1.07 0.75 96 1010.9
20260905113503 66 4 2.0 5.0 0.00 1.07 0.75 96 1010.9
20260905113002 66 6 3.0 5.0 0.00 1.07 0.75 96 1010.4
20260905112502 66 148 2.0 4.0 0.00 1.07 0.75 96 1010.4
20260905112003 66 148 1.0 3.0 0.00 1.07 0.75 96 1010.4
20260905111502 66 148 2.0 3.0 0.00 1.07 0.75 96 1010.4